This is the latest recevied weather packets stored in our database for station/object K0SNA. If no packets are shown the sender has not sent any weather packets the latest 10 day(s).
| Time | Temp. | Humidity | Pressure | Rain* | Wind** | Luminosity | Snow |
|---|---|---|---|---|---|---|---|
| 1777158675 | 13.89° C | 52% | 1016.2 hPa | 0 mm | - | 71 W/m² | - |
| 1777158370 | 13.89° C | 51% | 1015.6 hPa | 0 mm | - | 86 W/m² | - |
| 1777158066 | 13.89° C | 52% | 1015.9 hPa | 0 mm | - | 90 W/m² | - |
| 1777157761 | 13.89° C | 51% | 1015.5 hPa | 0 mm | - | 85 W/m² | - |
| 1777157458 | 13.89° C | 53% | 1015.1 hPa | 0 mm | - | 78 W/m² | - |
| 1777157155 | 13.89° C | 52% | 1015.8 hPa | 0 mm | - | 78 W/m² | - |
| 1777156854 | 13.89° C | 52% | 1015.6 hPa | 0 mm | - | 86 W/m² | - |
| 1777156549 | 13.89° C | 52% | 1015.7 hPa | 0 mm | - | 98 W/m² | - |
| 1777156247 | 13.89° C | 54% | 1015.9 hPa | 0 mm | - | 101 W/m² | - |
| 1777155943 | 13.89° C | 53% | 1015.5 hPa | 0 mm | - | 82 W/m² | - |
| 1777155638 | 13.89° C | 53% | 1015.8 hPa | 0 mm | - | 75 W/m² | - |
| 1777155336 | 13.89° C | 53% | 1015.9 hPa | 0 mm | - | 82 W/m² | - |
| 1777155033 | 13.89° C | 53% | 1015.4 hPa | 0 mm | - | 78 W/m² | - |
| 1777154730 | 13.89° C | 54% | 1015.3 hPa | 0 mm | - | 81 W/m² | - |
| 1777154426 | 13.89° C | 54% | 1015.3 hPa | 0 mm | - | 74 W/m² | - |
| 1777154121 | 13.89° C | 53% | 1015.9 hPa | 0 mm | - | 86 W/m² | - |
| 1777153817 | 13.89° C | 52% | 1016 hPa | 0 mm | - | 104 W/m² | - |
| 1777153514 | 13.89° C | 53% | 1015.7 hPa | 0 mm | - | 112 W/m² | - |
| 1777153209 | 13.89° C | 52% | 1016 hPa | 0 mm | - | 129 W/m² | - |
| 1777152907 | 14.44° C | 52% | 1016.1 hPa | 0 mm | - | 155 W/m² | - |
| 1777152603 | 13.89° C | 52% | 1016 hPa | 0 mm | - | 159 W/m² | - |
| 1777152300 | 13.89° C | 52% | 1015.8 hPa | 0 mm | - | 153 W/m² | - |
| 1777151995 | 13.33° C | 52% | 1015.8 hPa | 0 mm | - | 144 W/m² | - |
| 1777151690 | 13.89° C | 52% | 1016 hPa | 0 mm | - | 144 W/m² | - |
| 1777151388 | 13.33° C | 51% | 1016.1 hPa | 0 mm | - | 139 W/m² | - |
* Rain latest hour (hover to see other rain measurements)
** Current wind speed in m/s (hover to see current wind gust speed)